Regional Weather Roundup
Issued by NWS

Home | Current Version | Previous Version | Graphics & Text | Print | Product List | Glossary On
Versions: 1 2 3 4 5 6 7 8 9 10 11 12 13 14 15 16 17 18 19 20 21 22 23 24 25 26 27 28 29 30 31 32 33 34 35 36 37 38 39 40 41 42 43 44 45 46 47 48 49 50
000
ASUS43 KMPX 281201
RWRMN
WEATHER ROUNDUP FOR MINNESOTA
NATIONAL WEATHER SERVICE TWIN CITIES/CHANHASSEN MN
700 AM CDT THU APR 28 2016


NOTE: "FAIR" INDICATES FEW OR NO CLOUDS BELOW 12,000 FEET WITH NO
SIGNIFICANT WEATHER AND/OR OBSTRUCTIONS TO VISIBILITY. N/A MEANS
CURRENT SKY AND/OR WEATHER CONDITIONS ARE NOT AVAILABLE.

MNZ060>063-068>070-281300-
   Twin Cities Metro

CITY           SKY/WX    TMP DP  RH WIND       PRES   REMARKS
TWIN CITIES    LGT RAIN  39  33  79 NE10      29.92R
6HR MIN TEMP:  39; 6HR MAX TEMP:  43; 6HR PCP:  0.01;

ST PAUL        LGT RAIN  39  32  76 NE7       29.93R
CRYSTAL        LGT RAIN  38  33  82 N6        29.92R
EDEN PRAIRIE   LGT RAIN  39  33  79 NE10      29.90R
6HR MIN TEMP:  39; 6HR MAX TEMP:  44; 6HR PCP:  0.06;

SOUTH ST PAUL  LGT RAIN  39  33  80 NE6       29.91S
LAKE ELMO      LGT RAIN  37  32  81 NE8       29.93R
$$
MNZ001>005-007-008-013>017-022>024-027-028-281300-
   Northwest Minnesota

CITY           SKY/WX    TMP DP  RH WIND       PRES   REMARKS
BEMIDJI        CLOUDY    37  17  45 NE7       30.06R
HALLOCK        CLOUDY    39  16  38 E12       30.13R
ROSEAU         MOCLDY    34  27  75 NE3       30.15R
WARROAD        CLOUDY    36  27  69 NE8       30.16R
THIEF RVR FALL MOCLDY    37  19  48 NE10      30.10R
CROOKSTON      CLOUDY    39  21  48 E10       30.09R
FOSSTON        CLOUDY    37  19  48 NE7       30.06R
MOORHEAD       CLOUDY    43  27  52 NE7       30.04R
PARK RAPIDS    CLOUDY    41  16  36 E6        30.01R
MAHNOMEN       CLOUDY    40  17  38 E10       30.02S
$$
MNZ006-009>011-018-025>026-281300-
   North Central Minnesota

CITY           SKY/WX    TMP DP  RH WIND       PRES   REMARKS
BAUDETTE       CLOUDY    35  16  45 NE7       30.14R WCI  29
FLAG ISLAND    CLOUDY    37  18  44 NE8       30.16R
INTL FALLS     CLOUDY    36  19  50 NE6       30.14R
6HR MIN TEMP:  35; 6HR MAX TEMP:  42;

WASKISH        CLOUDY    34  23  64 NE8       30.11R WCI  27
BIG FORK       CLOUDY    36  19  51 NE6       30.08S
LONGVILLE      CLOUDY    39  12  33 NE5       30.03R
GRAND RAPIDS   CLOUDY    37  10  32 NE7       30.06R
CRANE LAKE     CLOUDY    27  25  93 CALM      30.15R
ORR            CLOUDY    32  16  51 CALM      30.08S
COOK           CLOUDY    34  19  55 NE3       30.09S
WALKER         CLOUDY    39  15  36 NE7       30.04R
$$
MNZ012-019>021-037-281300-
   Northeast Minnesota

CITY           SKY/WX    TMP DP  RH WIND       PRES   REMARKS
DULUTH         CLOUDY    37  21  52 E13       30.03R
6HR MIN TEMP:  37; 6HR MAX TEMP:  39;

ELY            CLOUDY    34  21  60 NE3       30.10R
HIBBING        CLOUDY    35  15  44 NE7       30.06R WCI  29
EVELETH        CLOUDY    36  18  48 NE6       30.07S
DULUTH HARBOR  CLOUDY    37  34  87 NE18      30.07R
TWO HARBORS    CLOUDY    41  28  60 NE9G17    30.06R
SILVER BAY     CLOUDY    37  27  65 NE12      30.07S
GRAND MARAIS     N/A     40  23  50 NE14G20   30.14R
G MARAIS ARPRT CLOUDY    34  18  51 NE7       30.11R WCI  28
$$
MNZ029>031-032-039>041-046>048-054>057-064-281300-
   West Central Minnesota

CITY           SKY/WX    TMP DP  RH WIND       PRES   REMARKS
FERGUS FALLS   CLOUDY    37  27  65 E6        29.99R
WHEATON        CLOUDY    39  34  81 NE10      30.00R
MORRIS         CLOUDY    39  32  75 NE10      29.95R
ALEXANDRIA       N/A     37  24  59 NE10      29.97R
ELBOW LAKE     CLOUDY    37  29  71 NE10      29.98R
WADENA         CLOUDY    39  16  38 NE7       29.99R
GLENWOOD       CLOUDY    36  28  75 NE14      29.95R
APPLETON       CLOUDY    39  32  75 NE9       29.95R
BENSON         DRIZZLE   37  30  75 E8        29.95R
ORTONVILLE     CLOUDY    39  34  81 NE12      29.95R
MADISON        LGT RAIN  37  34  87 NE15      29.94R
WILLMAR        CLOUDY    37  34  87 NE15G23   29.93R
$$
MNZ033>034-036-042>043-049>051-058-059-281300-
   Central Minnesota

CITY           SKY/WX    TMP DP  RH WIND       PRES   REMARKS
ST CLOUD       CLOUDY    37  25  61 NE8       29.95R
6HR MIN TEMP:  36; 6HR MAX TEMP:  38; 6HR PCP:  0.04;

SAUK CENTRE    CLOUDY    37  25  62 NE10      29.96R
PAYNESVILLE    LGT RAIN  36  29  75 NE13G21   29.95R
AITKIN         CLOUDY    43  10  26 NE8       30.00R
PINE RIVER     CLOUDY    37  21  52 NE7       30.05R
BRAINERD       CLOUDY    40  15  36 NE10      30.00R
STAPLES        CLOUDY    39  12  33 NE8       29.99R
LONG PRAIRIE   MIX PCPN  36  27  69 N13       29.96R
LITTLE FALLS   FLURRIES  37  21  52 NE6       29.98R
LITCHFIELD     RAIN      37  36  93 NE15      29.93R
BUFFALO        RAIN      37  31  80 NE10      29.94S
MAPLE LAKE     CLOUDY    37  33  87 N7        29.95R
HUTCHINSON     RAIN      37  35  92 NE15G21   29.92R
$$
MNZ037-044-045-052-053-281300-
   East Central Minnesota

CITY           SKY/WX    TMP DP  RH WIND       PRES   REMARKS
PRINCETON      CLOUDY    39  25  56 NE9       29.96S
MORA           LGT RAIN  34  28  80 NE3       30.00R
CAMBRIDGE      LGT RAIN  39  25  56 NE6       29.95R
RUSH CITY      CLOUDY    36  27  71 N6        29.98R
MOOSE LAKE     CLOUDY    37  19  48 NE8G16    30.00R
HINCKLEY       CLOUDY    41  18  38 NE8       29.98R
CLOQUET        CLOUDY    39  14  35 E14G21    30.02R
MCGREGOR       CLOUDY    39  19  45 NE7       30.02R
$$
MNZ071>073-080-081-089-090-097-098-281300-
   Southwest Minnesota

CITY           SKY/WX    TMP DP  RH WIND       PRES   REMARKS
MONTEVIDEO     LGT RAIN  36  36 100 E9        29.94R
GRANITE FALLS  LGT RAIN  38  35  88 NE14      29.92R
CANBY          DRIZZLE   39  37  92 NE9       29.93R
MARSHALL       LGT RAIN  38  36  92 NE16      29.90R
REDWOOD FALLS  LGT RAIN  38  35  89 NE10G16   29.89R
OLIVIA         LGT RAIN  36  34  93 NE12G17   29.90R
PIPESTONE      CLOUDY    37  36  93 E14G22    29.85R
WINDOM         CLOUDY    37  36  93 NE15G23   29.84R
WORTHINGTON    CLOUDY    37  35  92 NE17      29.84R
JACKSON        CLOUDY    36  36 100 NE18      29.83R
TRACY          RAIN      39  38  97 NE10G16   29.88R
SLAYTON        CLOUDY    37  37 100 NE16G23   29.85R
$$
MNZ065>067-074>077-082>085-091>093-281300-
   South Central Minnesota

CITY           SKY/WX    TMP DP  RH WIND       PRES   REMARKS
MANKATO        CLOUDY    39  34  81 E15       29.86R
NEW ULM        DRIZZLE   37  37 100 NE10G18   29.87S
ST JAMES       CLOUDY    34  32  93 NE13G20   29.86R WCI  25
FAIRMONT       CLOUDY    39  27  60 NE14      29.82R
GLENCOE        CLOUDY    38  37  96 NE8       29.90S
FARIBAULT      CLOUDY    37  37 100 N7        29.88R
OWATONNA       CLOUDY    39  34  81 NE8       29.86R
ALBERT LEA     CLOUDY    37  37 100 NE13      29.82S
$$
MNZ078>079-086>088-094>096-281300-
   Southeast Minnesota

CITY           SKY/WX    TMP DP  RH WIND       PRES   REMARKS
ROCHESTER      CLOUDY    39  32  76 E13       29.85R
6HR MIN TEMP:  38; 6HR MAX TEMP:  40; 6HR PCP:  0.10;

RED WING       LGT RAIN  39  30  70 E8        29.90R
STANTON        LGT RAIN  40  34  77 NE13      29.88R
DODGE CENTER   CLOUDY    37  36  93 E12       29.85R
WINONA         LGT RAIN  37  32  81 E8        29.90R
AUSTIN         CLOUDY    39  34  81 E10       29.83R
PRESTON        CLOUDY    38  32  78 E10G16    29.85R
$$
ABBREVIATIONS USED IN REMARKS
   TC - TEMPERATURES IN CELSIUS
  WCI - WIND CHILL INDEX
   HX - HEAT INDEX
  VSB - VISIBILITY
$$




USA.gov is the U.S. government's official web portal to all federal, state and local government web resources and services.